C/2001 N2 (LINEAR)                                                    

Epoch 2002 Sept. 3.0 TT = JDT 2452520.5  

T 2002 Aug. 19.65334 TT                                 Nakano

q   2.6685670            (2000.0)            P               Q

z  -0.0003765      Peri.  151.89448     -0.25197131     -0.81138605

 +/-0.0000010      Node    52.80709     -0.96456693     +0.25463166

e   1.0010048      Incl.  138.54171     -0.07823746     -0.52613248

From 824 observations 2001 July 11-2003 June 8, mean residual 0".65.

   (1/a)org.= +0.000450, (1/a)fut.= +0.000143 (+/-0.000001), Q= 8.

Residuals in seconds of arc 

2001/                     011022 170  0.5-  0.3-    020707 233  0.5+  1.2-  

010711 704 (2.1+  2.0-)   011022 213  1.5-  1.1+    020707 170  1.5+  0.2+  

010711 704 (0.9+  2.0-)   011022 213  0.6-  0.9-    020707 170  0.7+  0.1-  

010711 704  0.0   0.7-    011022 213  0.2+  0.2-    020707 170 (2.6+  1.1+) 

010711 704 (2.6+  2.5-)   011023 402  0.4+  0.0     020707 939  0.0   0.3+  

010711 704  0.0   1.0-    011023 402  0.6+  0.3-    020707 J91  1.3+  0.8-  

010712 952  0.0   0.6+    011023 402  0.0   0.2+    020707 939  0.3+  0.0   

010712 952  0.1-  0.1+    011023 360  0.4+  0.3-    020707 939  0.2+  0.2-  

010712 952  0.6+  0.3+    011023 360  0.1-  0.3+    020708 A46  0.7+  0.2+  

010712 704  0.0   0.3-    011024 213 (3.2-  2.1-)   020708 A46  0.1-  0.4+  

010712 704  0.7+  0.3-    011024 213 (4.1-  0.2-)   020708 A46  0.3+  0.1+  

010712 704  0.1+  0.5+    011024 213 (4.0-  1.9-)   020708 A46  0.1+  0.2+  

010712 704  1.2-  0.3+    011102 118  0.2-  0.1-    020708 A46  1.2+  0.1-  

010712 704  0.3-  0.3+    011102 118  0.4-  0.2+    020708 A46  0.7+  0.1-  

010712 596  0.6+  1.8+    011102 118  0.3-  0.2+    020708 A46  0.2+  0.0   

010712 596  0.3-  1.8+    011103 213  1.7-  0.5-    020708 A46  0.8+  0.2-  

010712 596  0.8+  0.6+    011103 213  0.2+  0.6-    020708 A46  0.3+  0.6-  

010713 673  0.6-  1.5+    011103 213  0.3-  0.2+    020708 A46  0.1+  0.1+  

010713 673  0.5-  1.6+    011104 349  0.4-  0.9+    020708 A46  0.2+  0.4+  

010715 046  0.2+  0.3+    011104 349  0.6+  0.4+    020708 A46  0.1-  0.4+  

010715 046  0.2+  0.1+    011104 349  0.2+  1.0+    020708 A46  0.1-  0.1-  

010715 046  0.2+  0.1+    011112 704  0.3-  0.5+    020708 A46  0.8-  0.7-  

010715 046  0.0   0.3+    011112 704  1.0-  0.1+    020708 A46  0.0   0.1-  

010718 952 (1.4-  2.2+)   011112 704  0.4-  0.0     020708 A46  0.4-  1.1-  

010718 952  0.5+  0.8-    011112 704  0.4-  0.2-    020709 613  0.5-  0.0   

010718 952 (2.2+  1.6-)   011112 704  0.8+  1.5-    020709 613  0.4-  0.7+  

010721 204  0.1-  0.5+    011116 402  0.4+  0.3-    020709 613  0.4-  0.1+  

010721 204  0.1+  0.1+    011116 402  0.0   0.4-    020709 213  0.9-  0.3-  

010722 342  0.6+  0.2-    011116 402  0.4+  0.4-    020709 213  0.4+  0.3-  

010722 342  0.1+  1.0-    2002/                     020710 844  0.1+  0.0   

010724 470  0.4-  0.1-    020318 349  0.1+  0.2-    020710 844  1.2+  0.1-  

010724 470  0.0   0.1-    020318 349  0.8+  0.4-    020710 844  0.1+  0.1+  

010724 360  0.1-  0.0     020318 349  0.3+  0.7-    020710 A46  0.1+  1.4-  

010724 360  0.0   0.1-    020405 349  0.5+  0.0     020710 A46  0.8+  0.9-  

010724 170  1.2+  0.2-    020405 349  0.9-  0.3-    020710 A46  0.5-  1.4-  

010724 170  0.2+  0.3+    020405 349  0.3-  0.1-    020710 A46  0.6+  0.8-  

010724 170  0.9-  0.3+    020413 367  1.5-  0.4+    020710 A46  0.4+  0.9-  

010724 170  0.2+  0.3-    020413 367 (2.0-  0.1-)   020710 A46  0.6+  0.1-  

010724 170  0.7+  0.1-    020413 367  1.2-  0.6-    020710 A46  1.5-  1.1-  

010727 170  0.2+  0.3-    020420 170  0.4-  0.3+    020710 A46  1.4+  0.0   

010727 170  0.7-  0.2+    020421 232  0.7-  0.5+    020710 A46  0.4-  0.7-  

010731 170  0.2-  0.5-    020421 232  0.5-  0.5+    020710 235  1.3-  1.2-  

010731 170  1.3+  0.4+    020502 349  0.9-  0.2-    020711 340  0.2+  0.1+  

010731 170  0.1+  0.4-    020502 349  0.5-  0.5+    020711 340  0.5-  0.2-  

010802 170  0.9-  1.1-    020502 349  0.2-  0.9+    020711 340  0.2+  0.2-  

010802 170  0.6+  0.2+    020502 349  0.4-  0.5+    020711 340  0.4-  0.2-  

010802 170  0.4+  1.2+    020505 367  1.5-  1.0+    020711 360  0.5-  0.1-  

010802 170  0.8+  0.3+    020505 367  0.4-  1.9+    020711 360  0.5-  0.1-  

010810 952  0.2-  1.2+    020505 367  0.0   1.2+    020711 J95  0.5-  0.1+  

010810 952  0.5+  0.4+    020512 360  0.5-  0.4+    020711 J95  0.4-  0.1+  

010810 952  0.1-  0.2+    020512 360  0.1+  0.7+    020711 J95  0.2-  0.2+  

010811 204  1.8+  0.2-    020512 360  0.2-  0.8+    020712 762  0.2-  0.3+  

010811 185  0.8-  1.5+    020513 212  0.4-  0.6-    020712 762  0.3-  0.2+  

010811 185  0.5-  0.3-    020513 212  0.0   0.5-    020712 762  0.1-  0.3+  

010811 204  0.1+  1.8+    020518 939  0.3-  0.4-    020712 349  0.8+  0.8+  

010811 185  1.4-  0.1+    020518 939  0.1-  0.1-    020712 349  0.9+  0.6+  

010811 204  1.7+  0.1+    020518 939  0.4+  0.2-    020712 349  0.1-  0.2-  

010811 941  1.3-  0.9+    020518 704  0.2+  0.2-    020712 349  0.8+  0.5+  

010811 941  1.1-  0.6+    020518 704  1.3-  0.7-    020713 704 (2.4+  0.8+) 

010812 170  0.8-  0.6+    020518 704  0.1-  0.0     020713 704 (2.1+  0.2+) 

010812 170  0.7-  0.3+    020519 170 (0.5-  2.2+)   020713 704 (2.4+  1.6+) 

010812 941  1.5-  0.5+    020519 704  0.4-  0.3+    020713 704 (2.6+  0.8+) 

010812 941  1.2-  1.1+    020519 704  0.2+  0.9+    020713 704 (3.3+  0.7-) 

010812 170  1.6-  0.5+    020519 704  1.5-  0.5+    020714 939  0.1-  0.2-  

010812 941  0.3-  0.1+    020520 611  0.2-  0.4+    020714 939  0.1+  0.3-  

010812 170  0.4-  0.3-    020520 611  0.5-  0.2+    020714 939  0.3+  0.7-  

010812 213  1.2-  1.4+    020520 232  1.5-  0.5+    020715 458 (5.3-  0.1+) 

010812 213  1.6+  0.7+    020520 232  0.1+  1.5+    020715 458  0.4-  1.3+  

010812 213 (2.1+  0.3+)   020520 360  0.6-  0.2-    020717 J91  0.0   1.6-  

010812 213  1.3+  0.7+    020520 360  0.3-  0.1-    020717 170  0.5-  0.0   

010813 215 (2.8+  1.4-)   020521 349  0.8-  0.7-    020717 170  0.6+  0.0   

010813 215 (3.1+  1.5-)   020521 349  0.3-  1.6-    020717 A46  0.6+  0.0   

010813 215 (3.7+  1.5-)   020521 349  0.7+  0.3+    020717 A46  0.9-  0.2-  

010813 215 (3.0+  1.2-)   020521 349  0.6-  0.3-    020717 A46  1.3+  0.0   

010813 170  0.1-  0.5+    020523 342 (1.8-  3.0-)   020717 A46  0.6-  0.2-  

010813 170  1.3-  0.6+    020523 342  1.4-  1.4+    020717 A46  0.6+  0.1-  

010813 170  0.6-  0.0     020524 340  0.4-  0.4-    020717 A46  0.3-  0.6-  

010813 170  1.2-  0.0     020524 340  1.3-  0.4-    020717 A46  0.8+  0.3+  

010814 213  0.5-  0.1-    020524 340  0.4-  0.8-    020717 A46  0.2+  0.0   

010814 213  0.6+  0.7+    020525 939  0.3+  0.2+    020717 A46  0.3+  0.6-  

010814 213  0.4+  0.1-    020525 939  0.3+  0.0     020717 J91  0.5-  0.5+  

010814 213  1.2+  1.1-    020525 939  0.2-  0.1-    020718 939  0.3+  0.3-  

010814 372  0.1+  0.2+    020525 232  0.3-  0.3-    020718 939  0.0   0.1-  

010814 402  0.2+  0.0     020525 170  0.8-  0.5-    020718 939  0.2-  0.2+  

010814 402  0.2+  0.0     020525 170  1.7+  0.2+    020719 213  0.2+  0.4-  

010814 402  0.1+  0.0     020525 213  0.3-  0.2+    020719 213  1.3+  0.2-  

010814 213  1.2+  0.4+    020525 213  0.0   0.4-    020719 939  0.6-  0.7-  

010814 213  1.1-  0.5+    020526 201  1.3-  0.1-    020719 939  0.8-  0.4-  

010814 213  0.2-  0.4-    020526 201  1.4-  0.6+    020719 939  1.2-  0.0   

010814 213 (5.3+  3.7+)   020526 201  0.1-  1.6+    020720 349  0.2+  0.2-  

010814 213  0.8-  0.6-    020526 941  0.4-  0.2+    020720 349  0.0   0.3-  

010815 941  1.6-  0.7+    020526 941  1.1-  0.0     020720 349  0.1+  0.5-  

010815 941  0.7-  0.7+    020526 941  0.5-  0.1-    020720 349  0.5+  0.1-  

010815 941  1.3-  0.0     020526 939  1.3+  0.4-    020720 939  0.2+  0.3+  

010815 941  0.1-  0.2+    020526 939  1.4+  0.6-    020720 939  0.5-  0.1+  

010815 342  0.8-  0.3+    020526 939  1.3+  0.6-    020720 939  1.9-  1.2-  

010815 342  0.6+  1.2-    020529 619 (2.2+  0.5-)   020721 A46  0.6+  0.9-  

010816 170  0.2-  0.1-    020529 619  0.2-  0.0     020721 A46  1.5+  0.2+  

010816 170  0.5+  0.0     020529 619  0.5+  0.3+    020721 A46  0.2+  0.7+  

010817 170  1.5-  1.4-    020530 620  0.6-  0.1-    020721 A46  0.2+  0.3+  

010817 170  0.4-  0.4+    020530 620  0.8-  0.0     020721 340  0.0   0.3-  

010817 170  0.6+  0.6+    020530 620  0.7-  0.2-    020721 340  0.6+  0.1-  

010817 170  0.5+  0.1-    020530 J95  1.6-  1.8+    020721 340  0.2+  0.1-  

010817 213  0.8+  0.2-    020530 J95  1.2-  0.1+    020721 170  0.6-  0.5+  

010817 213  0.1-  0.4-    020530 J95  0.4-  0.9+    020721 170  0.0   0.3+  

010817 213 (0.9+  2.7-)   020531 J95  0.2+  0.3+    020721 470  1.0+  0.3+  

010817 213  0.8-  0.6+    020531 J95  0.1-  0.5-    020721 470  0.7+  0.3+  

010818 213 (2.7+  0.1-)   020601 232 (1.1+  2.2-)   020722 939  0.8+  0.6+  

010818 213 (1.4-  2.0-)   020601 232  1.0+  1.6+    020722 939  0.4-  0.4+  

010819 213 (2.9+  5.5-)   020601 704  0.1+  0.7+    020722 939  1.1-  0.2+  

010819 642  1.4+  0.3+    020601 704  1.1+  0.8+    020722 A46  0.9+  0.5+  

010819 642  0.5-  0.3+    020601 704  0.5-  0.3-    020722 A46  1.5+  0.4-  

010819 642  0.7+  0.3+    020601 704  1.7+  0.1+    020722 A46  0.2+  0.3+  

010820 170  1.2+  0.4+    020601 704  0.6+  1.4-    020722 A46  0.1+  0.4+  

010820 232  0.3+  0.3-    020601 611  0.1-  0.0     020722 A46  1.2+  0.4+  

010820 232  0.2-  0.4-    020601 611  0.0   0.1+    020722 A46  1.1+  0.3+  

010820 213  0.1+  1.1-    020601 611  0.0   0.1+    020722 A46  0.4-  0.7+  

010820 232  0.8+  0.6-    020601 213  1.3+  0.6-    020722 A46  0.3-  1.7+  

010821 213  0.5+  0.6-    020601 213  0.6+  0.3-    020723 235  0.5+  0.8+  

010821 213  0.2+  0.8-    020602 613  0.1+  0.1-    020723 170  1.1-  0.6-  

